Content
SEND FEEDBACK

Daily
Averages
Monthly
Summary
United States of America

ST. LOUIS, MISSOURI


Home > North America > United States > Missouri
Elevation: 535 feet     Latitude: 38 45N     Longitude: 090 22W

WEATHER
 
SELECT A DAY
Number of Records: 196,207;   Date Range: 1/1/95 - 7/7/14
 
SHARE

PRINT THIS DATA

[ ← Previous Day ]
WEATHER ALMANAC - SEPTEMBER 1, 2013
[ Next Day → ]
[ °C ]   °F
Weather ElementAverageHighLow
Temperature82.1 °F90 °F (11:54 am)72 °F (6:54 am)
Dewpoint71.2 °F73.9 °F (8:54 am)66.9 °F (4:54 pm)
Humidity71.1 %93 % (5:54 am)46 % (4:54 pm)
Barometer29.78 in29.82 in (11:54 pm)29.75 in (1:54 am)
Wind Speed3.6 mph12.7 mph (1:41 pm)
Weather ElementAverage
Visibility10 mi
Wind DirectionENE (80.8 °)

Weather ElementTotal
Precipitation---
Cooling Degree Days16 (Base 65)
Growing Degree Days31 (Base 50)
Averaged from 26 records on September 1, 2013
WEATHER CONDITIONS BREAKOUT
WIND DIRECTION BREAKOUT
WEATHER BY HOUR - SEPTEMBER 1, 2013
[ °C ]   °F
Local TimeTemperatureDewpointHumidityBarometerVisibilityWind DirectionWind SpeedGust SpeedPrecipitationEventsConditions
1:54 AM75.9 °F70.0 °F82 %29.75 in10.0 miCalmClear
2:54 AM73.9 °F70.0 °F87 %29.75 in10.0 miCalmClear
3:54 AM73.0 °F70.0 °F90 %29.75 in10.0 miCalmClear
4:54 AM73.9 °F71.1 °F91 %29.76 in10.0 miCalmClear
5:54 AM73.0 °F71.1 °F93 %29.76 in10.0 miCalmClear
6:54 AM72.0 °F69.1 °F91 %29.77 in10.0 miCalmScattered Clouds
7:54 AM77.0 °F72.0 °F84 %29.78 in10.0 miWNW (290°)3.5 mphScattered Clouds
8:54 AM81.0 °F73.9 °F79 %29.77 in10.0 miCalmScattered Clouds
9:54 AM84.9 °F73.0 °F67 %29.78 in10.0 miWNW (290°)9.2 mphScattered Clouds
10:54 AM88.0 °F72.0 °F59 %29.77 in10.0 miVariable4.6 mphMostly Cloudy
11:54 AM90.0 °F72.0 °F55 %29.78 in10.0 miVariable4.6 mphMostly Cloudy
12:54 PM88.0 °F73.0 °F61 %29.78 in10.0 miWSW (250°)9.2 mphMostly Cloudy
1:24 PM87.8 °F71.6 °F58 %29.81 in10.0 miWest (270°)10.4 mphThunderstormMostly Cloudy
1:41 PM87.8 °F71.6 °F58 %29.80 in10.0 miWest (260°)12.7 mphPartly Cloudy
1:54 PM88.0 °F72.0 °F59 %29.78 in10.0 miWest (270°)6.9 mphOvercast
2:54 PM89.1 °F71.1 °F55 %29.76 in10.0 miNW (320°)3.5 mphMostly Cloudy
3:21 PM89.6 °F69.8 °F52 %29.77 in10.0 miENE (60°)9.2 mphClear
3:54 PM90.0 °F72.0 °F55 %29.75 in10.0 miVariable5.8 mphClear
4:54 PM90.0 °F66.9 °F46 %29.76 in10.0 miENE (70°)8.1 mphMostly Cloudy
5:54 PM89.1 °F70.0 °F53 %29.76 in10.0 miCalmScattered Clouds
6:54 PM87.1 °F71.1 °F59 %29.77 in10.0 miNNE (20°)4.6 mphScattered Clouds
7:54 PM80.1 °F73.0 °F79 %29.79 in10.0 miCalmScattered Clouds
8:54 PM79.0 °F72.0 °F79 %29.81 in10.0 miCalmOvercast
9:54 PM79.0 °F71.1 °F77 %29.81 in10.0 miCalmClear
10:54 PM75.0 °F71.1 °F87 %29.81 in10.0 miCalmPartly Cloudy
11:54 PM73.0 °F71.1 °F93 %29.82 in10.0 miCalmClear
Hourly data recorded from KSUS, located miles away from St. Louis, Missouri







STORIES FROM OUR PARTNERS